| time (UTC) | temp C | wind direction | speed KPH | gust KPH | rain 1hr cm | rain 24hr cm | rain mn cm | humidity % | barometer mb |
| 20260506033021 | 11 | 326 | 1.6 | 12.9 | 0.00 | 0.00 | 0.00 | 82 | 1012.6 |
| 20260506031520 | 11 | 309 | 0.0 | 8.0 | 0.00 | 0.00 | 0.00 | 82 | 1012.7 |
| 20260506030018 | 11 | 18 | 1.6 | 9.7 | 0.00 | 0.00 | 0.00 | 81 | 1012.5 |
| 20260506024515 | 11 | 23 | 3.2 | 11.3 | 0.00 | 0.00 | 0.00 | 81 | 1011.9 |
| 20260506023016 | 11 | 19 | 3.2 | 11.3 | 0.00 | 0.00 | 0.00 | 81 | 1011.5 |
| 20260506021510 | 11 | 15 | 1.6 | 11.3 | 0.00 | 0.00 | 0.00 | 81 | 1011.1 |
| 20260506020008 | 11 | 13 | 3.2 | 8.0 | 0.00 | 0.00 | 0.00 | 80 | 1010.7 |
| 20260506014505 | 11 | 325 | 1.6 | 8.0 | 0.00 | 0.00 | 0.00 | 80 | 1010.5 |
| 20260506013003 | 11 | 326 | 4.8 | 9.7 | 0.00 | 0.00 | 0.00 | 80 | 1010.2 |
| 20260506011617 | 11 | 359 | 3.2 | 11.3 | 0.00 | 0.00 | 0.00 | 82 | 1010.1 |
| 20260506010101 | 11 | 333 | 1.6 | 11.3 | 0.00 | 0.00 | 0.00 | 82 | 1010.1 |
| 20260506004558 | 11 | 323 | 3.2 | 17.7 | 0.00 | 0.00 | 0.00 | 82 | 1009.6 |
| 20260506003057 | 11 | 21 | 4.8 | 16.1 | 0.00 | 0.00 | 0.00 | 81 | 1009.7 |
| 20260506001556 | 12 | 343 | 3.2 | 14.5 | 0.00 | 0.00 | 0.00 | 82 | 1009.3 |
| 20260506000053 | 12 | 24 | 4.8 | 14.5 | 0.00 | 0.00 | 0.00 | 83 | 1009.7 |
| 20260505234551 | 12 | 77 | 4.8 | 12.9 | 0.00 | 0.00 | 0.00 | 82 | 1009.4 |
| 20260505233047 | 12 | 53 | 3.2 | 12.9 | 0.00 | 0.00 | 0.00 | 83 | 1009.1 |
| 20260505231602 | 12 | 354 | 3.2 | 12.9 | 0.00 | 0.00 | 0.00 | 83 | 1008.4 |
| 20260505230041 | 12 | 343 | 6.4 | 14.5 | 0.00 | 0.00 | 0.00 | 83 | 1008.1 |
| 20260505224538 | 13 | 330 | 3.2 | 14.5 | 0.00 | 0.00 | 0.00 | 83 | 1007.8 |
| 20260505223034 | 13 | 351 | 1.6 | 12.9 | 0.00 | 0.00 | 0.00 | 82 | 1007.5 |
| 20260505221534 | 13 | 347 | 1.6 | 11.3 | 0.00 | 0.00 | 0.00 | 82 | 1007.7 |
| 20260505220031 | 14 | 323 | 3.2 | 17.7 | 0.00 | 0.00 | 0.00 | 82 | 1007.5 |
| 20260505214534 | 14 | 32 | 1.6 | 14.5 | 0.00 | 0.00 | 0.00 | 82 | 1007.2 |
| 20260505213034 | 15 | 35 | 6.4 | 14.5 | 0.00 | 0.00 | 0.00 | 81 | 1007.3 |
| 20260505211521 | 15 | 349 | 4.8 | 14.5 | 0.00 | 0.00 | 0.00 | 81 | 1007.2 |
| 20260505210018 | 16 | 314 | 3.2 | 16.1 | 0.00 | 0.00 | 0.00 | 80 | 1007.2 |
| 20260505204515 | 16 | 96 | 3.2 | 14.5 | 0.00 | 0.00 | 0.00 | 80 | 1006.6 |
| 20260505203019 | 16 | 359 | 6.4 | 19.3 | 0.00 | 0.00 | 0.00 | 79 | 1006.2 |
| 20260505201521 | 17 | 359 | 8.0 | 17.7 | 0.00 | 0.00 | 0.00 | 78 | 1005.5 |
| 20260505200011 | 17 | 335 | 4.8 | 11.3 | 0.00 | 0.00 | 0.00 | 79 | 1006.6 |
| 20260505194504 | 17 | 50 | 3.2 | 17.7 | 0.00 | 0.00 | 0.00 | 78 | 1006.4 |
| 20260505193100 | 18 | 57 | 4.8 | 16.1 | 0.00 | 0.00 | 0.00 | 76 | 1005.5 |
| 20260505191610 | 22 | 330 | 6.4 | 14.5 | 0.00 | 0.00 | 0.00 | 66 | 1005.1 |
| 20260505190052 | 26 | 134 | 1.6 | 8.0 | 0.00 | 0.00 | 0.00 | 75 | 1004.8 |
| 20260505184549 | 25 | 140 | 0.0 | 4.8 | 0.00 | 0.00 | 0.00 | 76 | 1005.4 |
| 20260505183048 | 25 | 302 | 1.6 | 8.0 | 0.00 | 0.00 | 0.00 | 76 | 1005.3 |
| 20260505181548 | 25 | 243 | 3.2 | 8.0 | 0.00 | 0.00 | 0.00 | 75 | 1005.0 |
| 20260505180050 | 25 | 271 | 1.6 | 8.0 | 0.00 | 0.00 | 0.00 | 76 | 1004.9 |
| 20260505174546 | 25 | 263 | 1.6 | 9.7 | 0.00 | 0.00 | 0.00 | 76 | 1004.8 |
| 20260505173044 | 25 | 313 | 3.2 | 9.7 | 0.00 | 0.00 | 0.00 | 75 | 1004.7 |
| 20260505171546 | 25 | 257 | 3.2 | 14.5 | 0.00 | 0.00 | 0.00 | 75 | 1004.7 |
| 20260505170100 | 25 | 323 | 3.2 | 9.7 | 0.00 | 0.00 | 0.00 | 76 | 1004.8 |
| 20260505164541 | 24 | 245 | 1.6 | 6.4 | 0.00 | 0.00 | 0.00 | 77 | 1004.8 |
| 20260505163037 | 24 | 153 | 1.6 | 9.7 | 0.00 | 0.00 | 0.00 | 78 | 1004.6 |
| 20260505161535 | 24 | 150 | 1.6 | 4.8 | 0.00 | 0.00 | 0.00 | 78 | 1004.6 |
| 20260505153029 | 23 | 181 | 1.6 | 4.8 | 0.00 | 0.00 | 0.00 | 79 | 1004.4 |
| 20260505151525 | 22 | 127 | 0.0 | 4.8 | 0.00 | 0.00 | 0.00 | 81 | 1004.5 |
| 20260505124513 | 21 | 334 | 0.0 | 4.8 | 0.00 | 0.00 | 0.00 | 83 | 1004.5 |
| 20260505123012 | 21 | 293 | 0.0 | 6.4 | 0.00 | 0.00 | 0.00 | 83 | 1004.2 |
| 20260505121514 | 21 | 242 | 1.6 | 9.7 | 0.00 | 0.00 | 0.00 | 83 | 1003.7 |
| 20260505120010 | 21 | 357 | 1.6 | 6.4 | 0.00 | 0.00 | 0.00 | 83 | 1003.3 |
| 20260505114511 | 21 | 204 | 1.6 | 6.4 | 0.00 | 0.00 | 0.00 | 83 | 1003.0 |
| 20260505113016 | 21 | 238 | 1.6 | 6.4 | 0.00 | 0.00 | 0.00 | 83 | 1002.7 |
| 20260505111508 | 21 | 214 | 1.6 | 8.0 | 0.00 | 0.00 | 0.00 | 82 | 1002.8 |
| 20260505101505 | 21 | 69 | 1.6 | 9.7 | 0.00 | 0.00 | 0.00 | 81 | 1002.8 |
| 20260505100003 | 21 | 237 | 1.6 | 17.7 | 0.00 | 0.00 | 0.00 | 81 | 1002.7 |
| 20260505094501 | 21 | 260 | 1.6 | 17.7 | 0.00 | 0.00 | 0.00 | 80 | 1002.7 |
| 20260505093101 | 21 | 247 | 1.6 | 14.5 | 0.00 | 0.00 | 0.00 | 80 | 1002.5 |
| 20260505091600 | 21 | 258 | 4.8 | 20.9 | 0.00 | 0.00 | 0.00 | 79 | 1002.1 |
| 20260505090106 | 21 | 282 | 4.8 | 17.7 | 0.00 | 0.00 | 0.00 | 79 | 1002.0 |
| 20260505084556 | 21 | 285 | 8.0 | 24.1 | 0.00 | 0.00 | 0.00 | 78 | 1002.2 |
| 20260505083100 | 21 | 115 | 6.4 | 19.3 | 0.00 | 0.00 | 0.00 | 78 | 1002.2 |
| 20260505081550 | 21 | 247 | 6.4 | 27.4 | 0.00 | 0.00 | 0.00 | 77 | 1002.1 |
| 20260505080053 | 21 | 211 | 6.4 | 19.3 | 0.00 | 0.00 | 0.00 | 76 | 1002.4 |
| 20260505074544 | 21 | 243 | 6.4 | 17.7 | 0.00 | 0.00 | 0.00 | 76 | 1002.6 |
| 20260505073042 | 22 | 200 | 4.8 | 20.9 | 0.00 | 0.00 | 0.00 | 75 | 1002.9 |
| 20260505071641 | 22 | 209 | 8.0 | 19.3 | 0.00 | 0.00 | 0.00 | 75 | 1003.0 |
| 20260505070043 | 22 | 247 | 6.4 | 17.7 | 0.00 | 0.00 | 0.00 | 74 | 1003.2 |
| 20260505064535 | 22 | 134 | 6.4 | 20.9 | 0.00 | 0.00 | 0.00 | 74 | 1003.4 |
| 20260505063038 | 22 | 285 | 6.4 | 24.1 | 0.00 | 0.00 | 0.00 | 73 | 1003.7 |
| 20260505061534 | 22 | 240 | 6.4 | 19.3 | 0.00 | 0.00 | 0.00 | 73 | 1003.9 |
| 20260505060032 | 22 | 244 | 3.2 | 17.7 | 0.00 | 0.00 | 0.00 | 72 | 1004.2 |
| 20260505054536 | 22 | 222 | 4.8 | 19.3 | 0.00 | 0.00 | 0.00 | 72 | 1004.5 |
| 20260505053023 | 22 | 217 | 4.8 | 16.1 | 0.00 | 0.00 | 0.00 | 72 | 1004.4 |
| 20260505051521 | 22 | 156 | 4.8 | 16.1 | 0.00 | 0.00 | 0.00 | 72 | 1004.4 |